Time,TemperatureF,DewpointF,PressureIn,WindDirection,WindDirectionDegrees,WindSpeedMPH,WindSpeedGustMPH,Humidity,HourlyPrecipIn,Conditions,Clouds,dailyrainin,SoftwareType,DateUTC
2013-06-14 00:11:00,65.0,55.0,29.99,NE,34,0.0,0.0,70,0.00,,,0.00,,2013-06-14 05:11:00,
2013-06-14 00:22:00,65.0,55.0,29.99,NE,34,0.0,0.0,70,0.00,,,0.00,,2013-06-14 05:22:00,
2013-06-14 00:34:00,65.0,55.0,29.99,NE,34,0.0,0.0,70,0.00,,,0.00,,2013-06-14 05:34:00,
2013-06-14 00:43:00,65.0,55.0,29.99,NE,34,0.0,0.0,70,0.00,,,0.00,,2013-06-14 05:43:00,
2013-06-14 00:52:00,65.0,55.0,29.99,NE,34,0.0,0.0,70,0.00,,,0.00,,2013-06-14 05:52:00,
2013-06-14 06:11:00,60.0,56.0,30.05,NW,320,1.0,2.0,86,0.00,,,0.00,,2013-06-14 11:11:00,
2013-06-14 06:23:00,61.0,56.0,30.06,WNW,299,2.0,3.0,84,0.00,,,0.00,,2013-06-14 11:23:00,
2013-06-14 06:32:00,62.0,56.0,30.06,WNW,299,0.0,0.0,82,0.00,,,0.00,,2013-06-14 11:32:00,
2013-06-14 06:43:00,62.0,56.0,30.06,WNW,300,0.0,2.0,82,0.00,,,0.00,,2013-06-14 11:43:00,
2013-06-14 06:52:00,62.0,56.0,30.06,WNW,301,3.0,3.0,82,0.00,,,0.00,,2013-06-14 11:52:00,
2013-06-14 07:02:00,63.0,57.0,30.06,NW,308,3.0,4.0,81,0.00,,,0.00,,2013-06-14 12:02:00,
2013-06-14 07:12:00,63.0,57.0,30.06,NNW,346,3.0,3.0,80,0.00,,,0.00,,2013-06-14 12:12:00,
2013-06-14 07:22:00,63.0,56.0,30.06,NW,319,4.0,6.0,79,0.00,,,0.00,,2013-06-14 12:22:00,
2013-06-14 07:33:00,64.0,57.0,30.06,NW,319,3.0,3.0,78,0.00,,,0.00,,2013-06-14 12:33:00,
2013-06-14 07:43:00,64.0,57.0,30.07,NW,323,0.0,2.0,78,0.00,,,0.00,,2013-06-14 12:43:00,
2013-06-14 07:52:00,64.0,57.0,30.08,NNW,327,2.0,3.0,78,0.00,,,0.00,,2013-06-14 12:52:00,
2013-06-14 08:02:00,65.0,57.0,30.08,NW,317,1.0,3.0,76,0.00,,,0.00,,2013-06-14 13:02:00,
2013-06-14 08:11:00,65.0,56.0,30.07,NW,315,1.0,3.0,73,0.00,,,0.00,,2013-06-14 13:11:00,
2013-06-14 08:22:00,66.0,56.0,30.07,NW,309,3.0,4.0,71,0.00,,,0.00,,2013-06-14 13:22:00,
2013-06-14 08:33:00,66.0,56.0,30.07,NW,311,5.0,5.0,70,0.00,,,0.00,,2013-06-14 13:33:00,
2013-06-14 08:43:00,66.0,56.0,30.09,NW,306,5.0,8.0,69,0.00,,,0.00,,2013-06-14 13:43:00,
2013-06-14 08:53:00,67.0,57.0,30.09,WNW,300,3.0,4.0,70,0.00,,,0.00,,2013-06-14 13:53:00,
2013-06-14 09:02:00,67.0,56.0,30.09,North,360,3.0,4.0,69,0.00,,,0.00,,2013-06-14 14:02:00,
2013-06-14 09:11:00,67.0,56.0,30.10,NW,320,3.0,3.0,67,0.00,,,0.00,,2013-06-14 14:11:00,
2013-06-14 09:22:00,68.0,57.0,30.10,NW,313,4.0,4.0,69,0.00,,,0.00,,2013-06-14 14:22:00,
2013-06-14 09:34:00,68.0,57.0,30.10,NNE,16,3.0,5.0,68,0.00,,,0.00,,2013-06-14 14:34:00,
2013-06-14 09:43:00,69.0,58.0,30.10,NE,36,3.0,3.0,67,0.00,,,0.00,,2013-06-14 14:43:00,
2013-06-14 09:52:00,69.0,58.0,30.10,NW,312,2.0,2.0,67,0.00,,,0.00,,2013-06-14 14:52:00,
2013-06-14 10:01:00,70.0,57.0,30.10,NW,309,3.0,3.0,64,0.00,,,0.00,,2013-06-14 15:01:00,
2013-06-14 10:11:00,70.0,56.0,30.10,NNW,338,2.0,2.0,62,0.00,,,0.00,,2013-06-14 15:11:00,
2013-06-14 10:23:00,71.0,57.0,30.10,NNE,14,3.0,3.0,61,0.00,,,0.00,,2013-06-14 15:23:00,
2013-06-14 10:33:00,72.0,58.0,30.10,NNW,348,4.0,7.0,61,0.00,,,0.00,,2013-06-14 15:33:00,
2013-06-14 10:44:00,72.0,57.0,30.11,North,5,4.0,5.0,60,0.00,,,0.00,,2013-06-14 15:44:00,
2013-06-14 10:52:00,73.0,57.0,30.11,NE,42,4.0,8.0,57,0.00,,,0.00,,2013-06-14 15:52:00,
2013-06-14 11:01:00,73.0,55.0,30.11,NNW,327,5.0,8.0,54,0.00,,,0.00,,2013-06-14 16:01:00,
2013-06-14 11:11:00,73.0,56.0,30.10,North,5,5.0,6.0,56,0.00,,,0.00,,2013-06-14 16:11:00,
2013-06-14 11:22:00,74.0,57.0,30.10,NNW,344,3.0,6.0,55,0.00,,,0.00,,2013-06-14 16:22:00,
2013-06-14 11:33:00,74.0,55.0,30.10,NNW,331,3.0,8.0,51,0.00,,,0.00,,2013-06-14 16:33:00,
2013-06-14 11:43:00,75.0,56.0,30.10,WNW,292,3.0,9.0,52,0.00,,,0.00,,2013-06-14 16:43:00,
2013-06-14 11:52:00,75.0,57.0,30.09,NNE,30,3.0,4.0,54,0.00,,,0.00,,2013-06-14 16:52:00,
2013-06-14 12:02:00,75.0,56.0,30.09,NNE,15,3.0,4.0,51,0.00,,,0.00,,2013-06-14 17:02:00,
2013-06-14 12:11:00,76.0,56.0,30.09,NE,41,2.0,6.0,50,0.00,,,0.00,,2013-06-14 17:11:00,
2013-06-14 12:22:00,76.0,55.0,30.09,NE,50,0.0,3.0,49,0.00,,,0.00,,2013-06-14 17:22:00,
2013-06-14 12:34:00,76.0,55.0,30.09,NNE,19,4.0,4.0,49,0.00,,,0.00,,2013-06-14 17:34:00,
2013-06-14 12:43:00,77.0,57.0,30.08,North,351,2.0,2.0,50,0.00,,,0.00,,2013-06-14 17:43:00,
2013-06-14 12:53:00,77.0,56.0,30.08,NNE,24,3.0,3.0,49,0.00,,,0.00,,2013-06-14 17:53:00,
2013-06-14 13:02:00,77.0,55.0,30.08,NNE,26,2.0,3.0,47,0.00,,,0.00,,2013-06-14 18:02:00,
2013-06-14 13:11:00,77.0,55.0,30.08,NNW,327,3.0,3.0,47,0.00,,,0.00,,2013-06-14 18:11:00,
2013-06-14 13:22:00,78.0,56.0,30.08,NE,34,0.0,3.0,47,0.00,,,0.00,,2013-06-14 18:22:00,
2013-06-14 13:32:00,78.0,56.0,30.08,NE,34,2.0,3.0,47,0.00,,,0.00,,2013-06-14 18:32:00,
2013-06-14 13:43:00,78.0,56.0,30.08,NW,323,3.0,5.0,46,0.00,,,0.00,,2013-06-14 18:43:00,
2013-06-14 13:52:00,79.0,58.0,30.07,NE,35,2.0,6.0,49,0.00,,,0.00,,2013-06-14 18:52:00,
2013-06-14 14:01:00,79.0,56.0,30.07,NW,316,2.0,5.0,46,0.00,,,0.00,,2013-06-14 19:01:00,
2013-06-14 14:11:00,79.0,57.0,30.08,North,355,1.0,7.0,47,0.00,,,0.00,,2013-06-14 19:11:00,
2013-06-14 14:22:00,79.0,56.0,30.07,North,11,3.0,3.0,45,0.00,,,0.00,,2013-06-14 19:22:00,
2013-06-14 14:32:00,79.0,57.0,30.07,NE,35,3.0,4.0,47,0.00,,,0.00,,2013-06-14 19:32:00,
2013-06-14 14:43:00,80.0,57.0,30.06,NNE,24,3.0,3.0,46,0.00,,,0.00,,2013-06-14 19:43:00,
2013-06-14 14:53:00,80.0,57.0,30.06,North,350,0.0,0.0,45,0.00,,,0.00,,2013-06-14 19:53:00,
2013-06-14 15:02:00,80.0,57.0,30.06,NE,43,3.0,3.0,46,0.00,,,0.00,,2013-06-14 20:02:00,
2013-06-14 15:11:00,80.0,55.0,30.05,North,5,3.0,5.0,43,0.00,,,0.00,,2013-06-14 20:11:00,
2013-06-14 15:22:00,80.0,57.0,30.06,NNE,20,1.0,3.0,45,0.00,,,0.00,,2013-06-14 20:22:00,
2013-06-14 15:33:00,81.0,58.0,30.06,NNE,22,3.0,3.0,45,0.00,,,0.00,,2013-06-14 20:33:00,
2013-06-14 15:43:00,81.0,56.0,30.06,North,5,3.0,5.0,43,0.00,,,0.00,,2013-06-14 20:43:00,
2013-06-14 15:53:00,81.0,57.0,30.07,NE,51,4.0,5.0,44,0.00,,,0.00,,2013-06-14 20:53:00,
2013-06-14 16:02:00,81.0,55.0,30.07,ENE,60,0.0,3.0,41,0.00,,,0.00,,2013-06-14 21:02:00,
2013-06-14 16:11:00,82.0,59.0,30.06,WNW,303,1.0,10.0,46,0.00,,,0.00,,2013-06-14 21:11:00,
2013-06-14 16:22:00,82.0,56.0,30.06,NW,304,1.0,1.0,41,0.00,,,0.00,,2013-06-14 21:22:00,
2013-06-14 16:34:00,82.0,56.0,30.06,West,277,4.0,9.0,41,0.00,,,0.00,,2013-06-14 21:34:00,
2013-06-14 16:42:00,82.0,58.0,30.06,NW,323,3.0,6.0,44,0.00,,,0.00,,2013-06-14 21:42:00,
2013-06-14 16:52:00,82.0,57.0,30.06,NNE,15,3.0,3.0,43,0.00,,,0.00,,2013-06-14 21:52:00,
2013-06-14 17:01:00,82.0,57.0,30.06,NNE,19,3.0,4.0,43,0.00,,,0.00,,2013-06-14 22:01:00,
2013-06-14 17:11:00,81.0,56.0,30.05,NW,324,3.0,3.0,43,0.00,,,0.00,,2013-06-14 22:11:00,
2013-06-14 17:22:00,81.0,56.0,30.05,NNE,21,1.0,2.0,43,0.00,,,0.00,,2013-06-14 22:22:00,
2013-06-14 17:33:00,81.0,56.0,30.05,NNE,22,0.0,2.0,42,0.00,,,0.00,,2013-06-14 22:33:00,
2013-06-14 17:43:00,81.0,58.0,30.04,NW,326,1.0,1.0,45,0.00,,,0.00,,2013-06-14 22:43:00,
2013-06-14 17:53:00,81.0,58.0,30.04,NW,326,0.0,1.0,46,0.00,,,0.00,,2013-06-14 22:53:00,
2013-06-14 18:01:00,80.0,58.0,30.04,NW,323,0.0,2.0,47,0.00,,,0.00,,2013-06-14 23:01:00,
2013-06-14 18:11:00,80.0,58.0,30.04,NW,323,0.0,2.0,47,0.00,,,0.00,,2013-06-14 23:11:00,
2013-06-14 18:22:00,80.0,60.0,30.03,NNW,328,1.0,2.0,50,0.00,,,0.00,,2013-06-14 23:22:00,
2013-06-14 18:33:00,80.0,59.0,30.03,NNW,328,2.0,3.0,48,0.00,,,0.00,,2013-06-14 23:33:00,
2013-06-14 18:43:00,80.0,60.0,30.03,North,9,0.0,0.0,50,0.00,,,0.00,,2013-06-14 23:43:00,
2013-06-14 18:52:00,80.0,60.0,30.03,North,9,0.0,0.0,51,0.00,,,0.00,,2013-06-14 23:52:00,
2013-06-14 19:01:00,80.0,62.0,30.03,North,9,0.0,0.0,55,0.00,,,0.00,,2013-06-15 00:01:00,
2013-06-14 19:11:00,80.0,60.0,30.01,North,9,0.0,0.0,51,0.00,,,0.00,,2013-06-15 00:11:00,
2013-06-14 19:23:00,81.0,61.0,29.99,North,9,0.0,0.0,50,0.00,,,0.00,,2013-06-15 00:23:00,
2013-06-14 19:34:00,80.0,62.0,29.99,North,9,0.0,0.0,54,0.00,,,0.00,,2013-06-15 00:34:00,
2013-06-14 19:43:00,80.0,62.0,29.98,North,9,0.0,0.0,55,0.00,,,0.00,,2013-06-15 00:43:00,
2013-06-14 19:53:00,80.0,62.0,29.98,North,9,0.0,0.0,55,0.00,,,0.00,,2013-06-15 00:53:00,
2013-06-14 20:01:00,79.0,60.0,29.97,North,9,1.0,2.0,53,0.00,,,0.00,,2013-06-15 01:01:00,
2013-06-14 20:11:00,79.0,60.0,29.97,North,9,1.0,2.0,53,0.00,,,0.00,,2013-06-15 01:11:00,
2013-06-14 20:22:00,78.0,61.0,29.99,North,9,0.0,0.0,55,0.00,,,0.00,,2013-06-15 01:22:00,
2013-06-14 20:33:00,77.0,60.0,30.01,North,9,0.0,0.0,55,0.00,,,0.00,,2013-06-15 01:33:00,
2013-06-14 20:43:00,76.0,60.0,30.01,North,9,0.0,0.0,57,0.00,,,0.00,,2013-06-15 01:43:00,
2013-06-14 20:54:00,76.0,61.0,30.01,North,9,0.0,0.0,59,0.00,,,0.00,,2013-06-15 01:54:00,
2013-06-14 21:02:00,75.0,61.0,30.02,North,9,0.0,0.0,62,0.00,,,0.00,,2013-06-15 02:02:00,
2013-06-14 21:11:00,73.0,61.0,30.02,North,9,0.0,0.0,65,0.00,,,0.00,,2013-06-15 02:11:00,
2013-06-14 21:22:00,73.0,61.0,30.02,North,9,0.0,0.0,66,0.00,,,0.00,,2013-06-15 02:22:00,
2013-06-14 21:33:00,72.0,60.0,30.03,North,9,0.0,0.0,67,0.00,,,0.00,,2013-06-15 02:33:00,
2013-06-14 21:43:00,71.0,60.0,30.03,North,9,0.0,0.0,68,0.00,,,0.00,,2013-06-15 02:43:00,
2013-06-14 21:53:00,70.0,60.0,30.03,North,9,0.0,0.0,71,0.00,,,0.00,,2013-06-15 02:53:00,
2013-06-14 22:01:00,70.0,61.0,30.03,North,9,0.0,0.0,73,0.00,,,0.00,,2013-06-15 03:01:00,
2013-06-14 22:11:00,69.0,60.0,30.03,North,9,0.0,0.0,74,0.00,,,0.00,,2013-06-15 03:11:00,
2013-06-14 22:23:00,69.0,60.0,30.03,North,9,0.0,0.0,74,0.00,,,0.00,,2013-06-15 03:23:00,
2013-06-14 22:32:00,68.0,60.0,30.04,North,9,0.0,0.0,75,0.00,,,0.00,,2013-06-15 03:32:00,
2013-06-14 22:44:00,68.0,60.0,30.04,North,9,0.0,0.0,75,0.00,,,0.00,,2013-06-15 03:44:00,
2013-06-14 22:52:00,67.0,59.0,30.05,North,9,0.0,0.0,76,0.00,,,0.00,,2013-06-15 03:52:00,
2013-06-14 23:02:00,67.0,60.0,30.05,North,9,0.0,0.0,78,0.00,,,0.00,,2013-06-15 04:02:00,
2013-06-14 23:12:00,67.0,60.0,30.05,North,9,0.0,0.0,78,0.00,,,0.00,,2013-06-15 04:12:00,
2013-06-14 23:22:00,66.0,59.0,30.05,North,9,0.0,0.0,78,0.00,,,0.00,,2013-06-15 04:22:00,
2013-06-14 23:34:00,66.0,59.0,30.05,North,9,0.0,0.0,79,0.00,,,0.00,,2013-06-15 04:34:00,
2013-06-14 23:43:00,66.0,59.0,30.06,North,9,0.0,0.0,79,0.00,,,0.00,,2013-06-15 04:43:00,
2013-06-14 23:53:00,66.0,60.0,30.06,North,9,0.0,0.0,80,0.00,,,0.00,,2013-06-15 04:53:00,